Location: Neuvy Saint Sepulchre
(46.5953°N, 1.8122°E)
Time: 15:51:56
(UTC+02:00)

ISS - Pass Details

Date: 06 May 2026
Orbit: 414 x 424 km, 51.6° (Epoch: 21 May)

Event Time Altitude Azimuth Distance (km) Brightness Sun altitude
Exits shadow 04:05:09 12° 303° (WNW) 1,360 -1.2 -19.9°
Maximum altitude 04:08:02 45° 16° (NNE) 580 -2.7 -19.6°
Drops below altitude 10° 04:11:17 10° 91° (E) 1,500 -0.5 -19.3°
Sets 04:13:27 0° 97° (E) 2,364 0.5 -19.1°
